H1 CPF 1 NER 2013 3 8 9 5671 glonass114 H2 0806703 9114 33468 2013 3 8 0 0 0 2013 3 11 23 45 0 900 1 1 0 0 0 H9 10 0 56359 0.00000 0 13222190.030 15235532.974 -15603072.926 10 0 56359 900.00000 0 13932842.566 16860438.333 -13113091.701 10 0 56359 1800.00000 0 14622983.626 18137641.092 -10368208.541 10 0 56359 2700.00000 0 15235547.816 19054168.346 -7421749.419 10 0 56359 3600.00000 0 15713795.337 19609998.856 -4330979.954 10 0 56359 4500.00000 0 16003864.537 19817858.422 -1155989.587 10 0 56359 5400.00000 0 16057219.420 19702492.030 2041481.204 10 0 56359 6300.00000 0 15832887.655 19299443.898 5199247.284 10 0 56359 7200.00000 0 15299393.470 18653397.667 8255894.564 10 0 56359 8100.00000 0 14436302.546 17816147.635 11151980.574 10 0 56359 9000.00000 0 13235312.590 16844287.579 13831195.816 10 0 56359 9900.00000 0 11700842.540 15796715.597 16241462.550 10 0 56359 10800.00000 0 9850094.611 14732061.022 18335949.275 10 0 56359 11700.00000 0 7712585.721 13706142.517 20073981.037 10 0 56359 12600.00000 0 5329167.271 12769564.800 21421827.858 10 0 56359 13500.00000 0 2750573.638 11965555.328 22353356.411 10 0 56359 14400.00000 0 35559.414 11328131.695 22850532.742 10 0 56359 15300.00000 0 -2751297.440 10880676.454 22903766.902 10 0 56359 16200.00000 0 -5542035.658 10634978.575 22512093.427 10 0 56359 17100.00000 0 -8267893.191 10590781.103 21683184.728 10 0 56359 18000.00000 0 -10861925.471 10735853.265 20433197.548 10 0 56359 18900.00000 0 -13261551.499 11046583.239 18786455.741 10 0 56359 19800.00000 0 -15410922.899 11489066.048 16774975.594 10 0 56359 20700.00000 0 -17263018.303 12020640.290 14437842.883 10 0 56359 21600.00000 0 -18781377.012 12591808.637 11820453.606 10 0 56359 22500.00000 0 -19941400.767 13148460.931 8973632.856 10 0 56359 23400.00000 0 -20731170.366 13634305.991 5952648.854 10 0 56359 24300.00000 0 -21151744.103 13993409.390 2816141.058 10 0 56359 25200.00000 0 -21216926.623 14172729.992 -375016.911 10 0 56359 26100.00000 0 -20952518.806 14124547.957 -3558897.402 10 0 56359 27000.00000 0 -20395081.094 13808681.511 -6673718.982 10 0 56359 27900.00000 0 -19590262.915 13194398.508 -9659043.484 10 0 56359 28800.00000 0 -18590769.012 12261941.708 -12456946.502 10 0 56359 29700.00000 0 -17454048.571 11003602.830 -15013138.698 10 0 56359 30600.00000 0 -16239804.488 9424299.304 -17278016.369 10 0 56359 31500.00000 0 -15007427.490 7541628.529 -19207621.037 10 0 56359 32400.00000 0 -13813462.754 5385396.097 -20764489.905 10 0 56359 33300.00000 0 -12709215.110 2996636.362 -21918381.076 10 0 56359 34200.00000 0 -11738593.003 426164.847 -22646859.806 10 0 56359 35100.00000 0 -10936281.280 -2267278.695 -22935734.808 10 0 56359 36000.00000 0 -10326319.084 -5019220.771 -22779336.273 10 0 56359 36900.00000 0 -9921142.284 -7761888.443 -22180630.170 10 0 56359 37800.00000 0 -9721130.430 -10426787.547 -21151166.397 10 0 56359 38700.00000 0 -9714677.250 -12947318.834 -19710861.252 10 0 56359 39600.00000 0 -9878781.808 -15261324.042 -17887617.849 10 0 56359 40500.00000 0 -10180135.609 -17313456.684 -15716791.050 10 0 56359 41400.00000 0 -10576660.040 -19057279.270 -13240506.538 10 0 56359 42300.00000 0 -11019429.444 -20456999.646 -10506846.575 10 0 56359 43200.00000 0 -11454898.618 -21488774.166 -7568917.779 10 0 56359 44100.00000 0 -11827340.397 -22141523.229 -4483818.706 10 0 56359 45000.00000 0 -12081389.808 -22417225.139 -1311527.444 10 0 56359 45900.00000 0 -12164586.452 -22330676.239 1886268.875 10 0 56359 46800.00000 0 -12029806.603 -21908727.800 5047379.344 10 0 56359 47700.00000 0 -11637481.062 -21189032.338 8110325.029 10 0 56359 48600.00000 0 -10957503.772 -20218352.891 11015540.813 10 0 56359 49500.00000 0 -9970749.328 -19050507.297 13706539.142 10 0 56359 50400.00000 0 -8670134.179 -17744034.910 16131012.351 10 0 56359 51300.00000 0 -7061175.702 -16359684.824 18241851.702 10 0 56359 52200.00000 0 -5162024.600 -14957831.938 19998063.181 10 0 56359 53100.00000 0 -3002968.446 -13595929.994 21365562.253 10 0 56359 54000.00000 0 -625426.344 -12326108.741 22317832.532 10 0 56359 54900.00000 0 1919523.956 -11193015.979 22836436.053 10 0 56359 55800.00000 0 4573025.636 -10231994.588 22911365.825 10 0 56359 56700.00000 0 7270651.401 -9467670.303 22541234.469 10 0 56359 57600.00000 0 9944849.833 -8913008.524 21733295.821 10 0 56359 58500.00000 0 12527528.395 -8568878.734 20503299.511 10 0 56359 59400.00000 0 14952666.415 -8424143.704 18875181.614 10 0 56359 60300.00000 0 17158850.250 -8456268.718 16880597.455 10 0 56359 61200.00000 0 19091625.869 -8632424.305 14558305.602 10 0 56359 62100.00000 0 20705571.812 -8911035.288 11953414.882 10 0 56359 63000.00000 0 21966007.022 -9243710.285 9116508.762 10 0 56359 63900.00000 0 22850263.072 -9577469.839 6102664.002 10 0 56359 64800.00000 0 23348468.571 -9857178.786 2970382.439 10 0 56359 65700.00000 0 23463813.747 -10028079.855 -219543.463 10 0 56359 66600.00000 0 23212284.912 -10038321.211 -3405209.195 10 0 56359 67500.00000 0 22621880.689 -9841370.866 -6524798.027 10 0 56359 68400.00000 0 21731343.508 -9398215.617 -9517778.762 10 0 56359 69300.00000 0 20588460.106 -8679251.223 -12326078.064 10 0 56359 70200.00000 0 19248002.751 -7665783.499 -14895204.682 10 0 56359 71100.00000 0 17769397.752 -6351076.278 -17175303.959 10 0 56359 72000.00000 0 16214219.099 -4740901.234 -19122122.316 10 0 56359 72900.00000 0 14643612.193 -2853565.305 -20697863.423 10 0 56359 73800.00000 0 13115755.265 -719413.163 -21871919.853 10 0 56359 74700.00000 0 11683464.445 1620175.841 -22621466.363 10 0 56359 75600.00000 0 10392042.223 4114256.027 -22931903.690 10 0 56359 76500.00000 0 9277458.815 6704189.385 -22797144.374 10 0 56359 77400.00000 0 8364942.083 9325848.673 -22219735.068 10 0 56359 78300.00000 0 7668034.594 11912059.391 -21210812.710 10 0 56359 79200.00000 0 7188156.970 14395180.247 -19789894.956 10 0 56359 80100.00000 0 6914695.574 16709715.700 -17984508.264 10 0 56359 81000.00000 0 6825610.665 18794852.505 -15829660.161 10 0 56359 81900.00000 0 6888539.270 20596815.064 -13367165.072 10 0 56359 82800.00000 0 7062346.191 22070941.414 -10644836.208 10 0 56359 83700.00000 0 7299057.469 23183393.180 -7715558.672 10 0 56359 84600.00000 0 7546094.290 23912427.877 -4636261.468 10 0 56359 85500.00000 0 7748712.377 24249180.086 -1466808.542 10 0 56360 0.00000 0 7852542.945 24197918.756 1731169.293 10 0 56360 900.00000 0 7806126.467 23775769.720 4895478.664 10 0 56360 1800.00000 0 7563331.810 23011915.909 7964578.982 10 0 56360 2700.00000 0 7085555.650 21946308.434 10878785.667 10 0 56360 3600.00000 0 6343609.581 20627944.317 13581436.191 10 0 56360 4500.00000 0 5319212.841 19112783.365 16019995.851 10 0 56360 5400.00000 0 4006027.060 17461392.770 18147081.312 10 0 56360 6300.00000 0 2410188.165 15736418.920 19921381.854 10 0 56360 7200.00000 0 550312.245 13999993.062 21308460.418 10 0 56360 8100.00000 0 -1543025.801 12311179.849 22281419.218 10 0 56360 9000.00000 0 -3828319.795 10723575.561 22821417.528 10 0 56360 9900.00000 0 -6254623.686 9283156.260 22918032.112 10 0 56360 10800.00000 0 -8763445.307 8026465.204 22569453.973 10 0 56360 11700.00000 0 -11290964.241 6979214.407 21782518.141 10 0 56360 12600.00000 0 -13770481.996 6155357.727 20572566.360 10 0 56360 13500.00000 0 -16135003.239 5556673.033 18963145.624 10 0 56360 14400.00000 0 -18319841.305 5172869.590 16985548.480 10 0 56360 15300.00000 0 -20265140.156 4982214.958 14678204.050 10 0 56360 16200.00000 0 -21918208.394 4952653.866 12085931.397 10 0 56360 17100.00000 0 -23235568.714 5043370.998 9259069.524 10 0 56360 18000.00000 0 -24184637.833 5206731.041 6252500.758 10 0 56360 18900.00000 0 -24744967.349 5390513.519 3124586.289 10 0 56360 19800.00000 0 -24908994.240 5540347.502 -63965.571 10 0 56360 20700.00000 0 -24682270.092 5602242.977 -3251276.373 10 0 56360 21600.00000 0 -24083159.978 5525111.467 -6375496.902 10 0 56360 22500.00000 0 -23142024.056 5263169.031 -9376005.622 10 0 56360 23400.00000 0 -21899916.540 4778119.712 -12194582.807 10 0 56360 24300.00000 0 -20406856.855 4041026.724 -14776537.658 10 0 56360 25200.00000 0 -18719745.519 3033791.810 -17071766.693 10 0 56360 26100.00000 0 -16900012.057 1750179.655 -19035723.068 10 0 56360 27000.00000 0 -15011093.195 196343.268 -20630278.393 10 0 56360 27900.00000 0 -13115846.471 -1609173.006 -21824460.785 10 0 56360 28800.00000 0 -11274006.926 -3635954.291 -22595055.151 10 0 56360 29700.00000 0 -9539792.545 -5842739.582 -22927054.453 10 0 56360 30600.00000 0 -7959757.803 -8178908.603 -22813953.372 10 0 56360 31500.00000 0 -6570984.344 -10586370.613 -22257878.630 10 0 56360 32400.00000 0 -5399683.736 -13001777.981 -21269553.253 10 0 56360 33300.00000 0 -4460270.092 -15358973.642 -19868094.973 10 0 56360 34200.00000 0 -3754940.912 -17591571.496 -18080652.070 10 0 56360 35100.00000 0 -3273783.202 -19635563.011 -15941882.979 10 0 56360 36000.00000 0 -2995399.996 -21431841.822 -13493288.959 10 0 56360 36900.00000 0 -2888030.544 -22928541.021 -10782412.149 10 0 56360 37800.00000 0 -2911116.529 -24083085.417 -7861914.041 10 0 56360 38700.00000 0 -3017247.697 -24863872.617 -4788551.969 10 0 56360 39600.00000 0 -3154404.091 -25251512.094 -1622073.580 10 0 56360 40500.00000 0 -3268399.259 -25239569.968 1575948.933 10 0 56360 41400.00000 0 -3305420.068 -24834787.962 4743321.672 10 0 56360 42300.00000 0 -3214554.587 -24056767.254 7818444.733 10 0 56360 43200.00000 0 -2950199.815 -22937130.634 10741516.336 10 0 56360 44100.00000 0 -2474246.168 -21518198.478 13455701.227 10 0 56360 45000.00000 0 -1757945.228 -19851234.630 15908239.850 10 0 56360 45900.00000 0 -783380.679 -17994336.401 18051476.347 10 0 56360 46800.00000 0 455520.604 -16010057.714 19843785.169 10 0 56360 47700.00000 0 1952480.861 -13962865.492 21250378.331 10 0 56360 48600.00000 0 3688889.301 -11916536.041 22243977.934 10 0 56360 49500.00000 0 5634345.593 -9931600.262 22805341.409 10 0 56360 50400.00000 0 7747706.891 -8062944.252 22923629.814 10 0 56360 51300.00000 0 9978595.299 -6357664.838 22596612.707 10 0 56360 52200.00000 0 12269303.513 -4853268.665 21830706.143 10 0 56360 53100.00000 0 14557019.701 -3576288.923 20640843.492 10 0 56360 54000.00000 0 16776279.502 -2541376.120 19050181.884 10 0 56360 54900.00000 0 18861543.547 -1750899.450 17089650.065 10 0 56360 55800.00000 0 20749793.555 -1195074.001 14797346.416 10 0 56360 56700.00000 0 22383039.294 -852606.980 12217798.705 10 0 56360 57600.00000 0 23710632.261 -691834.539 9401099.687 10 0 56360 58500.00000 0 24691289.861 -672300.211 6401935.213 10 0 56360 59400.00000 0 25294745.874 -746707.492 3278523.549 10 0 56360 60300.00000 0 25502958.507 -863163.423 91486.368 10 0 56360 61200.00000 0 25310825.739 -967617.813 -3097326.579 10 0 56360 62100.00000 0 24726378.285 -1006394.553 -6226036.301 10 0 56360 63000.00000 0 23770442.262 -928707.584 -9233933.608 10 0 56360 63900.00000 0 22475785.881 -689054.834 -12062654.966 10 0 56360 64800.00000 0 20885785.955 -249388.556 -14657312.435 10 0 56360 65700.00000 0 19052669.987 419030.045 -16967555.909 10 0 56360 66600.00000 0 17035407.293 1334170.702 -18948547.244 10 0 56360 67500.00000 0 14897336.996 2502230.801 -20561827.746 10 0 56360 68400.00000 0 12703631.526 3917132.106 -21776062.604 10 0 56360 69300.00000 0 10518701.009 5560539.793 -22567648.183 10 0 56360 70200.00000 0 8403646.101 7402404.384 -22921170.755 10 0 56360 71100.00000 0 6413864.757 9402005.431 -22829707.958 10 0 56360 72000.00000 0 4596911.957 11509454.817 -22294967.121 10 0 56360 72900.00000 0 2990700.861 13667598.427 -21327257.565 10 0 56360 73800.00000 0 1622119.694 15814238.245 -19945296.962 10 0 56360 74700.00000 0 506121.481 17884583.207 -18175854.898 10 0 56360 75600.00000 0 -354675.968 19813827.461 -16053239.824 10 0 56360 76500.00000 0 -969863.685 21539748.889 -13618638.557 10 0 56360 77400.00000 0 -1360594.637 23005219.427 -10919320.497 10 0 56360 78300.00000 0 -1558444.116 24160522.108 -8007721.497 10 0 56360 79200.00000 0 -1603826.110 24965377.403 -4940424.839 10 0 56360 80100.00000 0 -1544033.195 25390593.360 -1777059.201 10 0 56360 81000.00000 0 -1430983.645 25419269.727 1420864.683 10 0 56360 81900.00000 0 -1318772.022 25047504.943 4591155.601 10 0 56360 82800.00000 0 -1261127.982 24284575.842 7672157.433 10 0 56360 83700.00000 0 -1308892.004 23152582.304 10603954.358 10 0 56360 84600.00000 0 -1507616.077 21685571.680 13329541.479 10 0 56360 85500.00000 0 -1895391.937 19928179.966 15795937.336 10 0 56361 0.00000 0 -2500999.682 17933847.001 17955216.245 10 0 56361 900.00000 0 -3342456.302 15762680.681 19765440.393 10 0 56361 1800.00000 0 -4426024.960 13479060.297 21191473.025 10 0 56361 2700.00000 0 -5745729.463 11149079.128 22205657.947 10 0 56361 3600.00000 0 -7283393.020 8837933.101 22788352.167 10 0 56361 4500.00000 0 -9009201.548 6607364.491 22928302.001 10 0 56361 5400.00000 0 -10882767.956 4513266.540 22622856.010 10 0 56361 6300.00000 0 -12854653.642 2603548.062 21878011.162 10 0 56361 7200.00000 0 -14868284.024 916345.957 20708291.769 10 0 56361 8100.00000 0 -16862178.671 -521341.147 19136463.847 10 0 56361 9000.00000 0 -18772403.433 -1694542.653 17193090.517 10 0 56361 9900.00000 0 -20535142.572 -2600693.458 14915937.122 10 0 56361 10800.00000 0 -22089283.920 -3249484.992 12349237.417 10 0 56361 11700.00000 0 -23378909.391 -3662197.573 9542834.877 10 0 56361 12600.00000 0 -24355586.953 -3870543.487 6551215.648 10 0 56361 13500.00000 0 -24980368.378 -3915070.697 3432451.737 10 0 56361 14400.00000 0 -25225409.289 -3843195.472 247074.840 10 0 56361 15300.00000 0 -25075143.669 -3706947.727 -2943097.265 10 0 56361 16200.00000 0 -24526963.669 -3560524.950 -6076158.966 10 0 56361 17100.00000 0 -23591376.166 -3457758.578 -9091316.425 10 0 56361 18000.00000 0 -22291629.420 -3449600.270 -11930065.122 10 0 56361 18900.00000 0 -20662825.326 -3581734.646 -14537322.559 10 0 56361 19800.00000 0 -18750554.124 -3892419.684 -16862494.309 10 0 56361 20700.00000 0 -16609108.384 -4410646.290 -18860452.874 10 0 56361 21600.00000 0 -14299350.408 -5154695.166 -20492410.757 10 0 56361 22500.00000 0 -11886321.460 -6131152.453 -21726671.228 10 0 56361 23400.00000 0 -9436691.902 -7334426.388 -22539242.579 10 0 56361 24300.00000 0 -7016157.657 -8746786.406 -22914304.303 10 0 56361 25200.00000 0 -4686890.576 -10338924.292 -22844516.396 10 0 56361 26100.00000 0 -2505148.004 -12071015.258 -22331165.710 10 0 56361 27000.00000 0 -519140.218 -13894235.949 -21384146.379 10 0 56361 27900.00000 0 1232756.314 -15752677.284 -20021774.200 10 0 56361 28800.00000 0 2723366.080 -17585573.269 -18270437.999 10 0 56361 29700.00000 0 3937605.723 -19329753.565 -16164093.988 10 0 56361 30600.00000 0 4872862.816 -20922217.821 -13743612.145 10 0 56361 31500.00000 0 5538846.870 -22302724.257 -11055986.660 10 0 56361 32400.00000 0 5956919.637 -23416283.982 -8153425.228 10 0 56361 33300.00000 0 6158933.562 -24215456.089 -5092334.559 10 0 56361 34200.00000 0 6185628.115 -24662346.530 -1932221.870 10 0 56361 35100.00000 0 6084652.614 -24730226.118 1265466.030 10 0 56361 36000.00000 0 5908300.054 -24404698.824 4438542.992 10 0 56361 36900.00000 0 5711048.894 -23684370.536 7525298.984 10 0 56361 37800.00000 0 5547017.909 -22580989.591 10465706.336 10 0 56361 38700.00000 0 5467442.996 -21119052.722 13202592.555 10 0 56361 39600.00000 0 5518283.720 -19334892.795 15682756.147 10 0 56361 40500.00000 0 5738061.819 -17275286.566 17858003.320 10 0 56361 41400.00000 0 6156023.849 -14995640.822 19686085.204 10 0 56361 42300.00000 0 6790706.191 -12557833.004 21131517.367 10 0 56361 43200.00000 0 7648963.527 -10027796.609 22166266.015 10 0 56361 44100.00000 0 8725502.174 -7472952.040 22770288.024 10 0 56361 45000.00000 0 10002938.279 -4959589.897 22931914.886 10 0 56361 45900.00000 0 11452378.848 -2550315.126 22648073.729 10 0 56361 46800.00000 0 13034501.631 -301657.715 21924341.681 10 0 56361 47700.00000 0 14701088.997 1738051.578 20774832.970 10 0 56361 48600.00000 0 16396951.963 3530453.261 19221921.228 10 0 56361 49500.00000 0 18062164.305 5048506.544 17295802.507 10 0 56361 50400.00000 0 19634513.569 6277357.431 15033907.485 10 0 56361 51300.00000 0 21052066.765 7214692.869 12480174.137 10 0 56361 52200.00000 0 22255743.594 7870567.739 9684194.739 10 0 56361 53100.00000 0 23191789.595 8266713.410 6700253.675 10 0 56361 54000.00000 0 23814045.659 8435358.320 3586274.511 10 0 56361 54900.00000 0 24085918.799 8417611.405 402696.679 10 0 56361 55800.00000 0 23981971.392 8261477.483 -2788696.366 10 0 56361 56700.00000 0 23489062.101 8019589.128 -5925974.750 10 0 56361 57600.00000 0 22606990.368 7746751.396 -8948262.276 10 0 56361 58500.00000 0 21348617.149 7497403.562 -11796915.595 10 0 56361 59400.00000 0 19739456.452 7323105.399 -14416659.636 10 0 56361 60300.00000 0 17816754.260 7270154.424 -16756657.415 10 0 56361 61200.00000 0 15628092.872 7377434.879 -18771493.636 10 0 56361 62100.00000 0 13229578.252 7674589.470 -20422053.358 10 0 56361 63000.00000 0 10683685.264 8180591.267 -21676279.123 10 0 56361 63900.00000 0 8056849.795 8902776.407 -22509792.160 10 0 56361 64800.00000 0 5416907.116 9836378.988 -22906366.046 10 0 56361 65700.00000 0 2830482.019 10964588.628 -22858243.779 10 0 56361 66600.00000 0 360438.443 12259129.322 -22366292.148 10 0 56361 67500.00000 0 -1936506.378 13681336.512 -21439990.218 10 0 56361 68400.00000 0 -4011904.891 15183688.460 -20097251.707 10 0 56361 69300.00000 0 -5827351.692 16711728.846 -18364084.101 10 0 56361 70200.00000 0 -7355832.411 18206300.990 -16274090.436 10 0 56361 71100.00000 0 -8582593.423 19606000.743 -13867822.559 10 0 56361 72000.00000 0 -9505496.621 20849745.496 -11191997.824 10 0 56361 72900.00000 0 -10134845.112 21879351.508 -8298593.855 10 0 56361 73800.00000 0 -10492687.872 22642010.975 -5243838.611 10 0 56361 74700.00000 0 -10611633.369 23092564.086 -2087115.454 10 0 56361 75600.00000 0 -10533223.060 23195469.676 1110195.290 10 0 56361 76500.00000 0 -10305934.393 22926390.622 4285915.236 10 0 56361 77400.00000 0 -9982898.725 22273326.310 7378283.223 10 0 56361 78300.00000 0 -9619431.775 21237243.642 10327162.560 10 0 56361 79200.00000 0 -9270482.166 19832179.307 13075215.978 10 0 56361 80100.00000 0 -8988106.998 18084808.475 15569024.708 10 0 56361 81000.00000 0 -8819082.115 16033497.659 17760129.450 10 0 56361 81900.00000 0 -8802748.808 13726881.132 19605972.827 10 0 56361 82800.00000 0 -8969188.438 11222020.452 21070724.937 10 0 56361 83700.00000 0 -9337802.372 8582223.818 22125976.315 10 0 56361 84600.00000 0 -9916357.353 5874616.064 22751285.299 10 0 56361 85500.00000 0 -10700536.614 3167560.342 22934569.718 10 0 56362 0.00000 0 -11674015.702 528038.325 22672335.968 10 0 56362 900.00000 0 -12809060.198 -1980902.837 21969741.467 10 0 56362 1800.00000 0 -14067619.624 -4302531.509 20840489.972 10 0 56362 2700.00000 0 -15402872.966 -6388542.167 19306561.758 10 0 56362 3600.00000 0 -16761160.127 -8200809.979 17397784.286 10 0 56362 4500.00000 0 -18084219.180 -9712716.770 15151251.542 10 0 56362 5400.00000 0 -19311635.541 -10909995.125 12610603.237 10 0 56362 6300.00000 0 -20383400.609 -11791056.768 9825177.621 10 0 56362 7200.00000 0 -21242472.550 -12366792.979 6849054.213 10 0 56362 8100.00000 0 -21837231.753 -12659856.882 3740004.863 10 0 56362 9000.00000 0 -22123727.805 -12703459.070 558373.373 10 0 56362 9900.00000 0 -22067623.358 -12539728.299 -2634094.503 10 0 56362 10800.00000 0 -21645753.022 -12217707.306 -5775447.966 10 0 56362 11700.00000 0 -20847231.376 -11791068.937 -8804731.714 10 0 56362 12600.00000 0 -19674063.154 -11315649.509 -11663166.678 10 0 56362 13500.00000 0 -18141229.418 -10846903.851 -14295288.134 10 0 56362 14400.00000 0 -16276245.441 -10437389.632 -16650019.195 10 0 56362 15300.00000 0 -14118208.028 -10134387.233 -18681659.064 10 0 56362 16200.00000 0 -11716371.280 -9977755.593 -20350767.212 10 0 56362 17100.00000 0 -9128309.185 -9998114.470 -21624926.768 10 0 56362 18000.00000 0 -6417740.703 -10215429.833 -22479372.644 10 0 56362 18900.00000 0 -3652106.757 -10638062.218 -22897472.614 10 0 56362 19800.00000 0 -899998.747 -11262318.560 -22871052.209 10 0 56362 20700.00000 0 1771455.495 -12072526.986 -22400557.137 10 0 56362 21600.00000 0 4299140.800 -13041632.276 -21495049.908 10 0 56362 22500.00000 0 6626333.803 -14132287.923 -20172040.272 10 0 56362 23400.00000 0 8704813.964 -15298399.859 -18457152.190 10 0 56362 24300.00000 0 10496619.362 -16487057.917 -16383633.066 10 0 56362 25200.00000 0 11975374.732 -17640774.569 -13991713.961 10 0 56362 26100.00000 0 13127136.814 -18699937.253 -11327832.567 10 0 56362 27000.00000 0 13950722.290 -19605371.258 -8443733.478 10 0 56362 27900.00000 0 14457505.168 -20300905.107 -5395462.860 10 0 56362 28800.00000 0 14670692.788 -20735829.828 -2242277.138 10 0 56362 29700.00000 0 14624111.747 -20867147.703 954512.901 10 0 56362 30600.00000 0 14360555.799 -20661514.762 4132739.602 10 0 56362 31500.00000 0 13929766.447 -20096794.052 7230593.469 10 0 56362 32400.00000 0 13386132.586 -19163153.212 10187831.343 10 0 56362 33300.00000 0 12786207.471 -17863659.125 12946953.440 10 0 56362 34200.00000 0 12186148.950 -16214343.802 15454325.619 10 0 56362 35100.00000 0 11639192.018 -14243738.057 17661224.602 10 0 56362 36000.00000 0 11193261.133 -11991891.960 19524785.614 10 0 56362 36900.00000 0 10888823.567 -9508922.710 21008833.971 10 0 56362 37800.00000 0 10757074.591 -6853150.308 22084584.796 10 0 56362 38700.00000 0 10818531.031 -4088898.410 22731197.715 10 0 56362 39600.00000 0 11082092.322 -1284051.751 22936176.331 10 0 56362 40500.00000 0 11544608.350 1492528.757 22695605.332 10 0 56362 41400.00000 0 12190972.077 4173626.423 22014221.220 10 0 56362 42300.00000 0 12994732.767 6696216.457 20905315.703 10 0 56362 43200.00000 0 13919203.974 9003836.081 19390473.946 10 0 56362 44100.00000 0 14919019.610 11048679.658 17499152.871 10 0 56362 45000.00000 0 15942072.737 12793332.859 15268107.688 10 0 56362 45900.00000 0 16931755.644 14212074.999 12740677.656 10 0 56362 46800.00000 0 17829407.096 15291696.649 9965944.715 10 0 56362 47700.00000 0 18576863.894 16031799.700 6997781.173 10 0 56362 48600.00000 0 19119009.380 16444568.748 3893804.773 10 0 56362 49500.00000 0 19406211.560 16554024.648 714261.286 10 0 56362 50400.00000 0 19396548.043 16394792.771 -2479143.607 10 0 56362 51300.00000 0 19057723.852 16010438.724 -5624440.467 10 0 56362 52200.00000 0 18368600.998 15451442.479 -8660597.016 10 0 56362 53100.00000 0 17320274.974 14772896.809 -11528700.412 10 0 56362 54000.00000 0 15916652.259 14032027.487 -14173097.967 10 0 56362 54900.00000 0 14174503.784 13285639.988 -16542474.340 10 0 56362 55800.00000 0 12122991.218 12587600.363 -18590844.433 10 0 56362 56700.00000 0 9802684.839 11986456.354 -20278443.114 10 0 56362 57600.00000 0 7264112.844 11523298.823 -21572494.891 10 0 56362 58500.00000 0 4565901.434 11229953.380 -22447848.977 10 0 56362 59400.00000 0 1772581.838 11127578.216 -22887467.793 10 0 56362 60300.00000 0 -1047845.773 11225727.204 -22882759.655 10 0 56362 61200.00000 0 -3826491.394 11521917.831 -22433749.200 10 0 56362 62100.00000 0 -6496191.341 12001722.555 -21549082.099 10 0 56362 63000.00000 0 -8994053.786 12639380.268 -20245863.532 10 0 56362 63900.00000 0 -11263828.688 13398902.792 -18549332.978 10 0 56362 64800.00000 0 -13258004.277 14235630.525 -16492380.923 10 0 56362 65700.00000 0 -14939543.404 15098172.352 -14114916.063 10 0 56362 66600.00000 0 -16283187.712 15930648.528 -11463094.616 10 0 56362 67500.00000 0 -17276275.636 16675142.192 -8588426.154 10 0 56362 68400.00000 0 -17919040.426 17274255.999 -5546772.940 10 0 56362 69300.00000 0 -18224376.160 17673665.576 -2397262.264 10 0 56362 70200.00000 0 -18217082.229 17824561.277 798866.872 10 0 56362 71100.00000 0 -17932618.841 17685874.224 3979459.836 10 0 56362 72000.00000 0 -17415426.841 17226191.560 7082661.142 10 0 56362 72900.00000 0 -16716883.707 16425278.938 10048123.532 10 0 56362 73800.00000 0 -15892982.990 15275144.902 12818187.099 10 0 56362 74700.00000 0 -15001836.136 13780601.309 15339004.711 10 0 56362 75600.00000 0 -14101103.035 11959295.267 17561591.427 10 0 56362 76500.00000 0 -13245460.331 9841210.456 19442777.269 10 0 56362 77400.00000 0 -12484214.796 7467658.097 20946044.779 10 0 56362 78300.00000 0 -11859162.456 4889799.214 22042235.429 10 0 56362 79200.00000 0 -11402783.591 2166759.372 22710111.582 10 0 56362 80100.00000 0 -11136849.279 -636586.007 22936763.687 10 0 56362 81000.00000 0 -11071497.608 -3452064.035 22717855.410 10 0 56362 81900.00000 0 -11204817.862 -6210793.220 22057702.517 10 0 56362 82800.00000 0 -11522959.572 -8845801.782 20969184.422 10 0 56362 83700.00000 0 -12000761.306 -11294567.541 19473490.431 10 0 56362 84600.00000 0 -12602872.317 -13501374.809 17599705.707 10 0 56362 85500.00000 0 -13285319.533 -15419391.239 15384245.020 99